Dewpoint
64 63 62 61 62 60 61 60 59 60 61 61 61 63 61 59 60 59 62 61 60 61 62 63 64 64 65 66 66 67 67 68 68 69 68 68 67 67 66 66 66 65 65
65 63 63 63 62 62 61 61 61 61 62 63 63 64 63 63 64 63 62 64 62 63 63 63 63 63 63 62 63 64 64 65 65 66 67 67 67 66 66 66 66 65 65
66 65 63 63 63 63 64 63 64 65 64 64 64 64 64 66 65 65 65 64 63 62 62 60 60 61 60 59 60 61 62 63 63 63 63 64 65 65 65 65 66 66 66
67 67 63 63 63 64 64 63 64 64 64 64 64 64 64 66 66 66 66 66 64 62 61 60 59 56 54 54 54 54 55 56 58 59 60 59 60 61 61 61 62 63 65
68 66 63 63 66 64 64 64 64 65 64 65 65 66 67 66 65 64 64 65 65 62 59 57 54 53 51 52 52 53 53 54 55 56 56 55 55 56 56 57 58 60 61
68 68 64 65 66 64 63 64 65 65 66 66 64 63 65 65 65 64 63 62 61 59 57 51 47 46 51 50 50 52 52 52 53 53 53 53 54 54 54 54 54 55 57
68 68 65 66 66 64 64 65 65 66 66 66 65 64 64 64 64 61 59 57 56 52 49 46 43 42 43 50 49 50 51 51 51 51 51 51 51 52 52 52 52 53 54
68 67 66 64 66 64 65 65 65 66 65 65 63 62 58 58 56 55 54 51 49 42 42 43 46 44 43 42 48 48 49 49 50 50 49 50 50 50 50 50 50 51 52
67 67 66 65 66 65 63 65 66 66 64 61 62 60 57 54 52 46 47 44 47 43 44 43 43 43 44 45 46 48 46 45 45 46 47 47 48 48 48 49 49 49 50
66 66 66 66 66 65 65 66 66 66 65 62 58 55 53 50 53 51 44 44 44 44 45 44 42 43 43 43 46 46 43 43 43 44 45 46 46 47 48 48 48 48 49
67 66 67 67 67 66 67 67 67 68 65 63 61 55 54 50 50 49 51 45 43 42 43 43 43 41 42 43 42 43 43 43 42 43 44 45 46 46 47 48 48 49 49
66 67 66 67 68 67 67 67 68 67 66 65 62 56 54 53 50 49 49 44 38 41 42 42 42 42 41 41 39 43 43 43 42 41 42 43 45 45 46 46 47 48 49
66 67 67 68 68 68 67 68 68 67 66 63 61 57 53 49 48 45 40 37 36 38 40 41 42 41 38 41 41 41 41 42 42 40 41 41 42 43 44 45 45 46 47
66 67 67 68 69 68 69 68 68 67 64 60 57 53 49 48 46 44 39 38 36 38 39 41 41 41 40 40 41 42 41 42 42 41 40 40 40 41 42 43 43 44 45
66 67 67 67 68 68 67 65 62 57 56 56 54 54 49 47 46 46 41 40 38 35 34 39 38 40 39 41 41 41 42 42 41 40 39 40 39 40 41 42 43 44 43
66 68 66 67 67 66 64 61 60 56 52 53 50 49 46 45 45 43 43 41 40 38 35 37 37 39 41 38 39 41 41 41 41 40 40 40 39 40 41 42 43 43 44
66 67 66 66 64 63 62 60 57 52 51 49 48 46 44 45 42 41 41 40 39 38 37 38 38 39 41 41 40 40 40 39 39 40 40 40 40 40 41 41 40 40 42
64 64 64 63 62 61 58 55 50 49 48 45 44 44 43 41 42 41 40 41 39 39 38 38 39 38 39 40 40 40 38 36 39 38 40 40 40 41 40 40 40 39 39
61 61 62 61 59 55 52 50 47 45 45 43 44 44 41 40 41 40 41 41 40 37 39 39 39 39 39 40 41 40 39 40 38 40 40 39 40 40 40 40 38 38 39
59 57 58 58 56 52 48 46 43 43 44 44 42 43 41 40 41 41 40 40 39 39 39 38 38 38 39 40 39 39 37 39 40 38 39 39 40 41 40 38 38 38 38
56 54 55 54 53 50 45 45 45 42 43 40 43 40 42 41 39 38 37 41 40 39 38 37 37 37 37 38 37 39 37 38 39 41 39 40 39 39 39 39 37 36 37
51 51 50 49 48 43 41 40 43 43 40 39 40 39 38 38 37 35 34 33 35 38 37 37 37 36 36 36 38 37 37 36 34 41 40 40 40 39 39 37 36 36 37
50 49 48 47 45 43 38 38 38 40 39 40 39 39 36 35 37 36 33 33 33 33 33 36 35 36 36 37 37 36 37 37 36 39 39 39 42 41 39 35 35 35 37
48 48 48 47 46 44 38 37 37 41 41 41 41 39 38 38 39 38 36 36 35 35 35 33 36 36 37 37 37 36 37 37 39 41 39 36 40 37 39 37 34 34 35
40 40 45 44 42 40 36 36 38 39 37 37 38 40 39 39 34 34 37 36 35 37 33 33 34 35 35 35 35 36 34 34 35 38 36 35 36 35 37 35 35 33 33
38 40 37 39 39 36 35 36 37 39 38 36 38 38 35 37 34 33 36 35 35 36 36 36 36 35 36 37 34 35 35 33 34 34 33 33 35 35 33 35 35 33 33
Lifted_Index
-1 -0 -0 0 0 1 1 1 1 1 1 0 -0 -1 -0 -0 -0 -1 -1 -1 -0 0 0 -0 -0 -1 -1 -1 -1 -1 -1 -1 -2 -2 -3 -3 -2 -2 -2 -1 -1 -1 -1
-1 -1 -1 -0 -0 0 1 1 1 0 -0 -1 -1 -1 -2 -2 -2 -2 -2 -2 -1 -0 -0 -0 -0 0 0 0 1 1 0 -0 -0 -1 -1 -1 -1 -1 -1 -1 -1 -1 -1
-2 -2 -1 -1 -1 -1 -0 -0 -1 -1 -1 -2 -2 -2 -3 -3 -3 -3 -3 -3 -2 -1 -1 -0 0 1 3 3 3 3 3 3 2 2 1 1 0 0 0 0 -0 -1 -1
-3 -2 -2 -1 -1 -1 -1 -1 -1 -2 -2 -2 -3 -3 -3 -3 -3 -3 -3 -3 -2 -2 -1 -0 1 4 6 7 6 6 5 5 5 4 4 3 3 3 3 2 2 1 0
-3 -3 -2 -2 -2 -2 -2 -2 -2 -2 -3 -3 -3 -3 -3 -3 -3 -3 -3 -3 -2 -2 -1 0 3 7 9 9 9 8 7 7 6 6 6 6 6 6 6 5 5 4 3
-3 -3 -3 -2 -2 -2 -2 -2 -2 -3 -3 -3 -3 -3 -3 -3 -3 -3 -2 -2 -2 -1 1 3 6 9 10 10 10 9 9 9 8 8 8 8 8 9 8 8 7 7 6
-3 -3 -3 -3 -2 -2 -2 -2 -3 -3 -3 -3 -3 -3 -3 -3 -2 -2 -1 -1 -0 2 4 7 8 10 10 10 10 10 10 10 10 10 10 10 10 11 10 10 10 9 8
-3 -3 -3 -3 -3 -2 -2 -3 -3 -3 -3 -3 -3 -3 -3 -2 -1 -1 -1 -0 1 5 7 9 9 10 10 10 10 11 12 12 13 13 13 13 13 13 12 12 11 11 10
-3 -3 -3 -3 -3 -3 -3 -3 -3 -4 -3 -3 -3 -3 -2 -2 -1 -1 -0 -0 2 6 8 9 10 10 10 10 11 12 13 14 14 15 15 15 15 14 14 13 13 12 12
-3 -2 -3 -3 -3 -3 -3 -4 -4 -4 -4 -3 -3 -3 -2 -2 -2 -1 -1 -0 2 6 8 9 10 10 10 11 12 13 14 15 15 15 16 16 16 15 14 14 13 13 13
-3 -3 -3 -3 -3 -4 -4 -4 -5 -4 -4 -3 -3 -2 -2 -2 -2 -2 -1 -0 2 6 8 9 10 10 11 12 13 14 14 15 15 15 16 15 15 15 15 14 14 14 13
-4 -4 -4 -4 -4 -4 -4 -5 -5 -5 -4 -3 -3 -2 -2 -2 -2 -2 -1 -0 3 6 8 9 10 11 12 13 14 14 14 15 15 15 15 15 15 15 15 15 15 15 14
-4 -4 -4 -5 -5 -5 -5 -5 -5 -5 -4 -4 -3 -3 -3 -3 -2 -2 -0 1 4 7 8 8 10 11 13 13 14 14 14 14 14 14 14 14 15 15 15 15 16 16 15
-5 -5 -5 -6 -6 -6 -5 -5 -5 -5 -5 -4 -3 -3 -3 -2 -2 -1 2 4 6 7 8 9 10 12 13 14 14 14 14 14 13 14 14 14 14 15 15 16 16 16 16
-6 -6 -6 -6 -6 -6 -5 -5 -5 -5 -5 -4 -3 -3 -2 -2 -1 2 6 8 8 7 8 10 11 13 14 14 14 14 13 13 13 13 13 13 14 15 16 16 16 17 17
-7 -7 -7 -6 -6 -6 -6 -6 -5 -5 -5 -4 -3 -2 -2 -1 1 6 9 10 9 8 9 10 12 13 14 14 14 14 13 13 13 13 13 14 14 15 16 16 16 16 16
-6 -7 -7 -6 -6 -6 -6 -6 -5 -5 -4 -4 -3 -2 -1 1 5 9 10 10 9 10 10 11 12 13 14 14 14 13 14 14 14 14 14 14 15 15 16 16 16 16 16
-6 -6 -6 -6 -6 -6 -6 -6 -5 -5 -4 -3 -2 -1 0 3 7 10 10 10 10 11 11 11 12 13 13 14 13 13 14 14 15 15 15 15 15 15 15 15 15 15 16
-5 -5 -5 -6 -6 -6 -6 -5 -5 -5 -4 -3 -2 -0 2 6 9 10 10 10 11 11 11 11 12 13 13 13 13 13 13 14 15 15 15 15 15 15 15 15 15 15 15
-4 -4 -5 -5 -5 -6 -5 -5 -5 -4 -3 -2 -1 2 5 9 11 10 10 11 11 11 11 11 12 12 13 13 12 12 12 13 14 14 14 14 14 14 14 14 14 13 13
-3 -4 -4 -5 -5 -5 -5 -5 -4 -3 -2 -1 1 5 9 11 11 11 11 12 12 11 11 11 12 12 12 12 12 11 11 11 12 13 13 13 13 14 14 14 13 12 12
-3 -3 -4 -5 -5 -5 -5 -5 -4 -2 -1 0 4 9 11 12 12 12 12 12 12 12 12 12 12 12 12 12 12 11 11 10 11 12 12 12 13 13 13 13 12 11 11
-3 -4 -4 -5 -4 -4 -5 -4 -3 -1 1 3 7 10 11 11 11 12 12 12 13 13 13 13 13 13 12 13 12 12 11 11 11 11 11 11 11 12 12 12 11 11 10
-4 -4 -5 -4 -4 -4 -3 -3 -1 0 3 6 10 11 10 11 11 12 11 12 12 13 13 13 13 14 14 14 14 13 12 11 11 11 11 10 10 10 10 11 11 11 10
-3 -4 -4 -4 -4 -3 -2 -1 -0 1 4 8 10 11 10 11 11 12 11 11 12 13 14 14 14 15 15 16 15 14 12 10 10 10 10 9 9 9 9 10 10 10 10
-3 -3 -4 -4 -3 -2 -1 -0 1 2 5 9 10 11 11 11 12 12 12 11 12 13 14 14 14 15 16 16 15 14 12 10 9 9 9 9 9 9 8 9 10 10 10